Airfield :
LOGIN :

Register | Disclaimer

   EN    FR    IT 

 










Legend :    VFR   Marginal VFR   IFR   Intensive IFR   Very Intensive IFR
Visi :
Ceiling :
>= 8 km
>= 3000ft
5 to 8 km
1000 to 3000 ft
1500m to 5 km
500 to 1000 ft
800 to 1500m
200 to 500 ft
< 800m
< 200 ft
Symbols :   Thunderstorms  Fog  Heavy snow  Heavy precipitations  Wind > 20 kt
SIGMETs :     Misc.  Thunderstorms  Icing  Turbulence  Mountain Waves  Volcanic Ashes







- Airport Elevation : 65 ft
- IATA code : PMO


LICJ - Palermo Punta Raisi

CURRENT METAR :
  • 211150Z 36005KT 9999 FEW025 28/20 Q1014

EXPIRED METARs :
  • 211120Z 34006KT 9999 FEW025 28/20 Q1014
  • 211050Z 36008KT 9999 SCT025 27/20 Q1014
  • 211020Z 34008KT 9999 SCT025 28/21 Q1014
  • 210950Z 34008KT 9999 SCT025 28/20 Q1014
  • 210920Z 33008KT 9999 SCT025 27/20 Q1014

TAF TAF LICJ
Valid from the 21 at 12:00 until the 22 at 12:00 UTC


211100Z 2112/2212 35013KT CAVOK
BECMG 2122/2124 05013KT
BECMG 2208/2210 35012KT
No reported NOTAMs for that airfield.



MET'MAP, your aeronautical weather chart ! - Copyright ORBIFLY December 2007 - Disclaimer

ORBIFLY MET'MAP TEAM :

Programming & Development : Alexandra Zaïnal
Concept & Development : Baudouin d'Aumeries
Co-Development & Prog : Marc-Olivier Méhu
Technical & hardware support : Manuel Goepfert

Contact : metmap@orbifly.com




SOURCES & CREDITS :

   NOAA